Regional Weather Roundup
Issued by NWS

Home | Current Version | Previous Version | Text Only | Print | Product List | Glossary On
Versions: 1 2 3 4 5 6 7 8 9 10 11 12 13 14 15 16 17 18 19 20 21 22 23 24 25 26 27 28 29 30 31 32 33 34 35 36 37 38 39 40 41 42 43 44 45 46 47 48 49 50
000
ASUS43 KBIS 051810
RWRND

NORTH DAKOTA REGIONAL WEATHER ROUNDUP
NATIONAL WEATHER SERVICE BISMARCK ND
100 PM CDT SUN JUL 05 2015

NOTE: "FAIR" INDICATES FEW OR NO CLOUDS BELOW 12,000 FEET WITH NO
SIGNIFICANT WEATHER AND/OR OBSTRUCTIONS TO VISIBILITY.


NDZ001>003-009>011-017-051900-
NORTHWEST NORTH DAKOTA

CITY           SKY/WX    TMP DP  RH WIND       PRES   REMARKS
WILLISTON      CLOUDY    74  52  46 N18       29.95S HAZE
6HR MIN TEMP:  64; 6HR MAX TEMP:  74; 6HR PCP:  0.01;

MINOT          MOSUNNY   73  62  68 NW13G23   29.86R HAZE
MINOT AFB      MOSUNNY   76  69  80 NW18      29.85R
$$

NDZ018>021-031>035-040>046-051900-
SOUTHWEST NORTH DAKOTA

CITY           SKY/WX    TMP DP  RH WIND       PRES   REMARKS
BISMARCK       PTSUNNY   73  64  73 N6        29.83R
6HR MIN TEMP:  67; 6HR MAX TEMP:  74; 6HR PCP: TRACE;

DICKINSON      PTSUNNY   71  60  68 N16G28    29.90R
GARRISON         N/A     73  61  65 N13       29.88R
6HR MIN TEMP:  64; 6HR MAX TEMP:  73; 6HR PCP:  0.24;

HETTINGER ARPT CLOUDY    77  62  59 N12       29.86R
$$

NDZ004>008-012>016-024-026-027-054-051900-
NORTHEAST NORTH DAKOTA

CITY           SKY/WX    TMP DP  RH WIND       PRES   REMARKS
GRAND FORKS    TSTM      67  66  97 NE15      29.71F
GRND FRKS AFB  LGT RAIN  66  65  96 E8        29.72F
DEVILS LAKE    PTSUNNY   70  63  78 N12       29.78R
$$

NDZ022-023-025-028>030-036>039-047>053-051900-
SOUTHEAST NORTH DAKOTA

CITY           SKY/WX    TMP DP  RH WIND       PRES   REMARKS
FARGO          CLOUDY    83  69  62 W12       29.76R
6HR MIN TEMP:  70; 6HR MAX TEMP:  84;

JAMESTOWN      CLOUDY    70  64  81 NE5       29.78F
$$



USA.gov is the U.S. government's official web portal to all federal, state and local government web resources and services.